SPHID EGGW-EPWA

Flight info

Callsign SPHID
Flight time 2h 9m
Altitude 41000
Route MATCH Q295 BRAIN M197 REDFA L620 TACHA DCT GARLU DCT ALUKA DCT DENKO P851 BIMPA
Aircraft HDJT/L-V/N

Departure

Time 2026-05-04 18:35
Airport London Luton Airport (EGGW)

Arrival

Time 2026-05-04 20:44
Airport Warsaw Chopin Airport (EPWA)
Time Latitude Longitude Altitude Speed Heading
2026-05-04 18:12 51.87751 -0.37983 518 ft 0 kts 218°
2026-05-04 18:30 51.87749 -0.37983 518 ft 0 kts 173°
2026-05-04 18:30 51.87748 -0.37975 518 ft 3 kts 59°
2026-05-04 18:31 51.87785 -0.37910 518 ft 12 kts 72°
2026-05-04 18:31 51.87764 -0.37790 518 ft 12 kts 116°
2026-05-04 18:31 51.87725 -0.37656 514 ft 16 kts 114°
2026-05-04 18:31 51.87674 -0.37507 516 ft 13 kts 138°
2026-05-04 18:32 51.87599 -0.37455 517 ft 12 kts 177°
2026-05-04 18:32 51.87515 -0.37498 516 ft 13 kts 230°
2026-05-04 18:32 51.87487 -0.37634 517 ft 13 kts 254°
2026-05-04 18:32 51.87462 -0.37783 517 ft 15 kts 255°
2026-05-04 18:33 51.87433 -0.37942 518 ft 15 kts 253°
2026-05-04 18:33 51.87374 -0.38062 517 ft 14 kts 207°
2026-05-04 18:33 51.87283 -0.38111 517 ft 13 kts 166°
2026-05-04 18:33 51.87250 -0.38072 518 ft 0 kts 72°
2026-05-04 18:34 51.87250 -0.38071 518 ft 2 kts 72°
2026-05-04 18:34 51.87323 -0.37657 516 ft 84 kts 74°
2026-05-04 18:34 51.87546 -0.36373 671 ft 136 kts 71°
2026-05-04 18:35 51.87840 -0.34765 1069 ft 163 kts 71°
2026-05-04 18:35 51.88199 -0.32852 1565 ft 190 kts 73°
2026-05-04 18:35 51.88542 -0.30689 2162 ft 205 kts 73°
2026-05-04 18:35 51.88919 -0.28412 2818 ft 214 kts 71°
2026-05-04 18:36 51.89327 -0.26060 3503 ft 220 kts 73°
2026-05-04 18:36 51.89581 -0.23590 4180 ft 228 kts 94°
2026-05-04 18:36 51.89133 -0.21105 4876 ft 233 kts 114°
2026-05-04 18:36 51.88440 -0.18613 5239 ft 248 kts 114°
2026-05-04 18:37 51.87811 -0.16097 6094 ft 244 kts 111°
2026-05-04 18:37 51.87200 -0.13465 6607 ft 251 kts 111°
2026-05-04 18:37 51.86576 -0.10822 7257 ft 253 kts 112°
2026-05-04 18:37 51.85936 -0.08170 7909 ft 253 kts 112°
2026-05-04 18:38 51.85291 -0.05484 8488 ft 259 kts 112°
2026-05-04 18:38 51.84640 -0.02769 8979 ft 263 kts 112°
2026-05-04 18:38 51.83975 -0.00009 9776 ft 263 kts 112°
2026-05-04 18:38 51.83308 0.02765 10445 ft 267 kts 112°
2026-05-04 18:39 51.82635 0.05552 11222 ft 262 kts 112°
2026-05-04 18:39 51.81982 0.08258 12085 ft 259 kts 112°
2026-05-04 18:39 51.81323 0.10983 12803 ft 262 kts 112°
2026-05-04 18:39 51.80656 0.13739 13538 ft 263 kts 111°
2026-05-04 18:40 51.80000 0.16448 14398 ft 258 kts 111°
2026-05-04 18:40 51.79341 0.19160 15043 ft 261 kts 112°
2026-05-04 18:40 51.78674 0.21907 15720 ft 263 kts 112°
2026-05-04 18:40 51.78150 0.24744 16386 ft 267 kts 99°
2026-05-04 18:41 51.78137 0.27762 17056 ft 272 kts 84°
2026-05-04 18:41 51.78398 0.30804 17720 ft 275 kts 84°
2026-05-04 18:41 51.78645 0.33879 18391 ft 278 kts 85°
2026-05-04 18:41 51.78887 0.37002 18966 ft 282 kts 85°
2026-05-04 18:42 51.79139 0.40156 19573 ft 284 kts 84°
2026-05-04 18:42 51.79395 0.43332 20184 ft 287 kts 85°
2026-05-04 18:42 51.79650 0.46546 20788 ft 290 kts 85°
2026-05-04 18:42 51.79906 0.49801 21464 ft 293 kts 85°
2026-05-04 18:43 51.80165 0.53081 22196 ft 296 kts 85°
2026-05-04 18:43 51.80425 0.56396 22919 ft 299 kts 85°
2026-05-04 18:43 51.80688 0.59751 23635 ft 303 kts 85°
2026-05-04 18:43 51.80953 0.63166 24141 ft 311 kts 85°
2026-05-04 18:44 51.81322 0.66639 24659 ft 317 kts 77°
2026-05-04 18:44 51.81690 0.68928 25059 ft 318 kts 77°
2026-05-04 18:44 51.82419 0.73592 25841 ft 322 kts 78°
2026-05-04 18:44 51.82954 0.77116 26409 ft 324 kts 78°
2026-05-04 18:45 51.83498 0.80667 26971 ft 327 kts 78°
2026-05-04 18:45 51.84128 0.84217 27498 ft 330 kts 75°
2026-05-04 18:45 51.84787 0.87786 28036 ft 332 kts 75°
2026-05-04 18:45 51.85438 0.91391 28553 ft 335 kts 76°
2026-05-04 18:46 51.86096 0.95020 29048 ft 338 kts 75°
2026-05-04 18:46 51.86762 0.98676 29544 ft 340 kts 76°
2026-05-04 18:46 51.87432 1.02366 30013 ft 343 kts 76°
2026-05-04 18:46 51.88104 1.06085 30416 ft 345 kts 76°
2026-05-04 18:47 51.88779 1.09823 30853 ft 346 kts 76°
2026-05-04 18:47 51.89453 1.13555 31314 ft 345 kts 76°
2026-05-04 18:47 51.90124 1.17287 31766 ft 345 kts 76°
2026-05-04 18:47 51.90792 1.21014 32207 ft 345 kts 76°
2026-05-04 18:48 51.91461 1.24742 32649 ft 345 kts 76°
2026-05-04 18:48 51.92127 1.28471 33083 ft 344 kts 76°
2026-05-04 18:48 51.92791 1.32192 33495 ft 344 kts 76°
2026-05-04 18:48 51.93455 1.35922 33931 ft 344 kts 76°
2026-05-04 18:49 51.94116 1.39644 34288 ft 344 kts 76°
2026-05-04 18:49 51.94776 1.43369 34626 ft 344 kts 76°
2026-05-04 18:49 51.95435 1.47089 34954 ft 344 kts 76°
2026-05-04 18:49 51.96092 1.50812 35288 ft 343 kts 76°
2026-05-04 18:50 51.96748 1.54534 35613 ft 343 kts 76°
2026-05-04 18:50 51.97402 1.58256 35934 ft 343 kts 76°
2026-05-04 18:50 51.98055 1.61978 36251 ft 343 kts 76°
2026-05-04 18:50 51.98707 1.65701 36571 ft 343 kts 76°
2026-05-04 18:51 51.99327 1.69385 36863 ft 343 kts 78°
2026-05-04 18:51 51.99900 1.73137 37157 ft 343 kts 77°
2026-05-04 18:51 52.00499 1.76888 37453 ft 343 kts 77°
2026-05-04 18:51 52.01092 1.80644 37753 ft 343 kts 78°
2026-05-04 18:52 52.01670 1.84396 38047 ft 343 kts 78°
2026-05-04 18:52 52.02250 1.88156 38331 ft 344 kts 78°
2026-05-04 18:52 52.02841 1.91969 38628 ft 343 kts 78°
2026-05-04 18:52 52.03415 1.95676 38857 ft 343 kts 77°
2026-05-04 18:53 52.03993 1.99438 39049 ft 344 kts 78°
2026-05-04 18:53 52.04573 2.03217 39246 ft 345 kts 78°
2026-05-04 18:53 52.05151 2.06995 39449 ft 345 kts 77°
2026-05-04 18:53 52.05730 2.10778 39663 ft 345 kts 77°
2026-05-04 18:54 52.06307 2.14559 39868 ft 345 kts 78°
2026-05-04 18:54 52.06883 2.18345 40060 ft 345 kts 77°
2026-05-04 18:54 52.07457 2.22132 40271 ft 345 kts 77°
2026-05-04 18:54 52.08032 2.25925 40456 ft 346 kts 77°
2026-05-04 18:55 52.08604 2.29717 40653 ft 346 kts 77°
2026-05-04 18:55 52.09747 2.37311 41011 ft 347 kts 77°
2026-05-04 18:55 52.10324 2.41158 41010 ft 353 kts 77°
2026-05-04 18:56 52.11513 2.49052 41008 ft 365 kts 75°
2026-05-04 18:56 52.13049 2.57054 41022 ft 376 kts 73°
2026-05-04 18:57 52.14609 2.65278 41028 ft 384 kts 74°
2026-05-04 18:57 52.16203 2.73680 41033 ft 392 kts 74°
2026-05-04 18:58 52.17818 2.82241 41030 ft 398 kts 74°
2026-05-04 18:58 52.19451 2.90931 41030 ft 404 kts 74°
2026-05-04 18:59 52.21095 2.99728 41027 ft 408 kts 74°
2026-05-04 18:59 52.22747 3.08616 41022 ft 411 kts 74°
2026-05-04 19:00 52.24410 3.17579 41027 ft 414 kts 74°
2026-05-04 19:00 52.25914 3.26665 41027 ft 415 kts 81°
2026-05-04 19:01 52.26860 3.35931 41022 ft 418 kts 82°
2026-05-04 19:01 52.27870 3.45286 41023 ft 419 kts 81°
2026-05-04 19:02 52.28847 3.54690 41017 ft 421 kts 82°
2026-05-04 19:02 52.29834 3.64120 41015 ft 422 kts 82°
2026-05-04 19:03 52.30809 3.73589 41016 ft 423 kts 82°
2026-05-04 19:03 52.31782 3.83074 41014 ft 424 kts 82°
2026-05-04 19:04 52.32747 3.92579 41018 ft 424 kts 82°
2026-05-04 19:04 52.33706 4.02096 41007 ft 425 kts 82°
2026-05-04 19:05 52.34658 4.11633 41006 ft 425 kts 82°
2026-05-04 19:05 52.35603 4.21177 41001 ft 425 kts 82°
2026-05-04 19:06 52.36540 4.30727 41001 ft 425 kts 82°
2026-05-04 19:06 52.37472 4.40293 40996 ft 426 kts 82°
2026-05-04 19:07 52.38395 4.49860 40996 ft 426 kts 82°
2026-05-04 19:07 52.39311 4.59435 40959 ft 427 kts 82°
2026-05-04 19:08 52.40219 4.69032 41001 ft 425 kts 83°
2026-05-04 19:08 52.41115 4.78609 41000 ft 425 kts 83°
2026-05-04 19:09 52.41987 4.88193 41002 ft 426 kts 83°
2026-05-04 19:09 52.42866 4.97789 40993 ft 426 kts 83°
2026-05-04 19:10 52.43730 5.07394 40993 ft 426 kts 83°
2026-05-04 19:10 52.44592 5.17015 40993 ft 427 kts 83°
2026-05-04 19:11 52.45444 5.26654 40988 ft 427 kts 83°
2026-05-04 19:11 52.46289 5.36295 40992 ft 427 kts 83°
2026-05-04 19:12 52.47542 5.50757 40985 ft 427 kts 83°
2026-05-04 19:13 52.48368 5.60415 40985 ft 428 kts 83°
2026-05-04 19:13 52.49187 5.70080 40966 ft 428 kts 83°
2026-05-04 19:14 52.49862 5.78122 40966 ft 428 kts 83°
2026-05-04 19:14 52.50667 5.87795 40963 ft 428 kts 83°
2026-05-04 19:15 52.51464 5.97480 40962 ft 428 kts 84°
2026-05-04 19:15 52.52385 6.08797 40970 ft 428 kts 84°
2026-05-04 19:16 52.53034 6.16855 40970 ft 428 kts 84°
2026-05-04 19:16 52.53808 6.26548 40968 ft 428 kts 84°
2026-05-04 19:17 52.54574 6.36255 40968 ft 428 kts 84°
2026-05-04 19:17 52.55332 6.45965 40968 ft 428 kts 84°
2026-05-04 19:18 52.56083 6.55677 40966 ft 429 kts 84°
2026-05-04 19:18 52.56825 6.65395 40962 ft 429 kts 84°
2026-05-04 19:19 52.57560 6.75126 40971 ft 429 kts 84°
2026-05-04 19:19 52.58289 6.84864 40968 ft 429 kts 84°
2026-05-04 19:20 52.59007 6.94610 40968 ft 429 kts 84°
2026-05-04 19:20 52.59720 7.04362 40956 ft 430 kts 84°
2026-05-04 19:21 52.60425 7.14122 40956 ft 430 kts 84°
2026-05-04 19:21 52.61126 7.23963 40956 ft 430 kts 84°
2026-05-04 19:22 52.61811 7.33671 40959 ft 430 kts 84°
2026-05-04 19:22 52.62492 7.43455 40959 ft 430 kts 84°
2026-05-04 19:23 52.63166 7.53246 40954 ft 430 kts 85°
2026-05-04 19:23 52.63831 7.63039 40962 ft 431 kts 85°
2026-05-04 19:24 52.64490 7.72847 40962 ft 431 kts 85°
2026-05-04 19:24 52.65139 7.82652 40962 ft 431 kts 85°
2026-05-04 19:25 52.65781 7.92473 40965 ft 431 kts 85°
2026-05-04 19:25 52.66415 8.02290 40965 ft 431 kts 85°
2026-05-04 19:26 52.67036 8.12034 40970 ft 431 kts 85°
2026-05-04 19:26 52.67655 8.21864 40972 ft 431 kts 85°
2026-05-04 19:27 52.68264 8.31687 40967 ft 431 kts 85°
2026-05-04 19:27 52.68869 8.41521 40964 ft 431 kts 85°
2026-05-04 19:28 52.69457 8.51357 40967 ft 431 kts 85°
2026-05-04 19:28 52.70046 8.61193 40984 ft 431 kts 85°
2026-05-04 19:29 52.70622 8.71034 40981 ft 431 kts 85°
2026-05-04 19:29 52.71191 8.80879 40981 ft 431 kts 85°
2026-05-04 19:30 52.71753 8.90730 40977 ft 432 kts 86°
2026-05-04 19:30 52.72306 9.00592 40977 ft 432 kts 86°
2026-05-04 19:31 52.72852 9.10456 40958 ft 432 kts 86°
2026-05-04 19:31 52.73389 9.20320 40958 ft 432 kts 86°
2026-05-04 19:32 52.73919 9.30201 40953 ft 432 kts 86°
2026-05-04 19:32 52.74440 9.40081 40953 ft 432 kts 86°
2026-05-04 19:33 52.74953 9.49967 40955 ft 432 kts 86°
2026-05-04 19:33 52.75458 9.59859 40955 ft 432 kts 86°
2026-05-04 19:34 52.75956 9.69758 40959 ft 433 kts 86°
2026-05-04 19:34 52.76444 9.79653 40960 ft 433 kts 86°
2026-05-04 19:35 52.76926 9.89561 40961 ft 433 kts 86°
2026-05-04 19:35 52.77398 9.99463 40962 ft 433 kts 86°
2026-05-04 19:36 52.77862 10.09367 40965 ft 433 kts 86°
2026-05-04 19:36 52.78318 10.19281 40955 ft 433 kts 86°
2026-05-04 19:37 52.78766 10.29198 40955 ft 433 kts 86°
2026-05-04 19:37 52.79206 10.39115 40943 ft 433 kts 86°
2026-05-04 19:38 52.79638 10.49043 40955 ft 433 kts 87°
2026-05-04 19:38 52.80061 10.58979 40953 ft 433 kts 87°
2026-05-04 19:39 52.80474 10.68855 40946 ft 434 kts 87°
2026-05-04 19:39 52.80881 10.78788 40946 ft 434 kts 87°
2026-05-04 19:40 52.81280 10.88731 40946 ft 433 kts 87°
2026-05-04 19:40 52.81670 10.98678 40946 ft 433 kts 87°
2026-05-04 19:41 52.82053 11.08621 40946 ft 433 kts 88°
2026-05-04 19:41 52.82427 11.18563 40946 ft 433 kts 88°
2026-05-04 19:42 52.82792 11.28500 40947 ft 433 kts 88°
2026-05-04 19:42 52.83149 11.38441 40938 ft 433 kts 88°
2026-05-04 19:43 52.83497 11.48380 40948 ft 433 kts 88°
2026-05-04 19:43 52.83837 11.58317 40948 ft 433 kts 88°
2026-05-04 19:44 52.84169 11.68254 40942 ft 433 kts 88°
2026-05-04 19:44 52.84492 11.78197 40945 ft 433 kts 88°
2026-05-04 19:45 52.84809 11.88153 40947 ft 434 kts 88°
2026-05-04 19:45 52.85116 11.98120 40947 ft 434 kts 88°
2026-05-04 19:46 52.85415 12.08096 40945 ft 434 kts 88°
2026-05-04 19:46 52.85707 12.18075 40945 ft 434 kts 89°
2026-05-04 19:47 52.85990 12.28059 40946 ft 435 kts 88°
2026-05-04 19:47 52.86265 12.38054 40946 ft 435 kts 89°
2026-05-04 19:48 52.86531 12.48055 40944 ft 435 kts 89°
2026-05-04 19:48 52.86790 12.58069 40944 ft 435 kts 89°
2026-05-04 19:49 52.87038 12.68012 40947 ft 435 kts 89°
2026-05-04 19:49 52.87280 12.78026 40948 ft 435 kts 89°
2026-05-04 19:50 52.87513 12.88038 40949 ft 436 kts 89°
2026-05-04 19:50 52.87737 12.98043 40948 ft 436 kts 89°
2026-05-04 19:51 52.87954 13.08079 40943 ft 435 kts 89°
2026-05-04 19:51 52.88162 13.18091 40943 ft 435 kts 89°
2026-05-04 19:52 52.88361 13.28114 40946 ft 435 kts 89°
2026-05-04 19:52 52.88552 13.38130 40945 ft 436 kts 89°
2026-05-04 19:53 52.88735 13.48159 40945 ft 436 kts 89°
2026-05-04 19:53 52.88909 13.58196 40945 ft 436 kts 89°
2026-05-04 19:54 52.89076 13.68234 40945 ft 436 kts 89°
2026-05-04 19:54 52.89233 13.78276 40946 ft 436 kts 89°
2026-05-04 19:55 52.89382 13.88311 40946 ft 436 kts 90°
2026-05-04 19:55 52.89523 13.98350 40946 ft 436 kts 90°
2026-05-04 19:56 52.89655 14.08390 40946 ft 436 kts 90°
2026-05-04 19:56 52.89779 14.18433 40959 ft 436 kts 90°
2026-05-04 19:57 52.89894 14.28491 40959 ft 437 kts 90°
2026-05-04 19:57 52.89561 14.38443 40947 ft 436 kts 96°
2026-05-04 19:58 52.89051 14.48442 40945 ft 436 kts 95°
2026-05-04 19:58 52.88573 14.58443 40951 ft 436 kts 96°
2026-05-04 19:59 52.88061 14.68438 40952 ft 436 kts 96°
2026-05-04 19:59 52.87559 14.78427 40949 ft 436 kts 96°
2026-05-04 20:00 52.87033 14.88420 40948 ft 436 kts 96°
2026-05-04 20:00 52.86510 14.98411 40948 ft 436 kts 96°
2026-05-04 20:01 52.86063 15.06712 40949 ft 436 kts 96°
2026-05-04 20:01 52.85521 15.16701 40948 ft 436 kts 96°
2026-05-04 20:02 52.84970 15.26679 40949 ft 436 kts 96°
2026-05-04 20:02 52.84411 15.36648 40940 ft 435 kts 96°
2026-05-04 20:03 52.83845 15.46609 40943 ft 435 kts 97°
2026-05-04 20:03 52.83270 15.56568 40943 ft 435 kts 97°
2026-05-04 20:04 52.82686 15.66521 40940 ft 435 kts 97°
2026-05-04 20:04 52.82094 15.76480 40943 ft 435 kts 97°
2026-05-04 20:05 52.81404 15.86403 40945 ft 434 kts 100°
2026-05-04 20:05 52.80448 15.96252 40947 ft 434 kts 100°
2026-05-04 20:06 52.79517 16.06108 40947 ft 434 kts 100°
2026-05-04 20:06 52.78561 16.15952 40945 ft 434 kts 101°
2026-05-04 20:07 52.77606 16.25793 40949 ft 434 kts 101°
2026-05-04 20:07 52.76637 16.35633 40942 ft 434 kts 100°
2026-05-04 20:08 52.75669 16.45404 40944 ft 434 kts 100°
2026-05-04 20:08 52.74687 16.55227 40941 ft 434 kts 101°
2026-05-04 20:09 52.73696 16.65050 40939 ft 434 kts 101°
2026-05-04 20:09 52.72697 16.74865 40940 ft 434 kts 101°
2026-05-04 20:10 52.71691 16.84669 40941 ft 433 kts 101°
2026-05-04 20:10 52.70680 16.94436 40940 ft 432 kts 101°
2026-05-04 20:11 52.69662 17.04196 40941 ft 432 kts 101°
2026-05-04 20:11 52.68637 17.13951 40941 ft 432 kts 101°
2026-05-04 20:12 52.67603 17.23700 40942 ft 432 kts 101°
2026-05-04 20:12 52.66563 17.33440 40941 ft 431 kts 101°
2026-05-04 20:13 52.65519 17.43128 40940 ft 429 kts 101°
2026-05-04 20:13 52.64468 17.52806 40940 ft 429 kts 101°
2026-05-04 20:14 52.63409 17.62481 40939 ft 429 kts 101°
2026-05-04 20:14 52.62342 17.72156 40936 ft 430 kts 101°
2026-05-04 20:15 52.61267 17.81825 40936 ft 429 kts 101°
2026-05-04 20:15 52.60187 17.91464 40936 ft 428 kts 101°
2026-05-04 20:16 52.59100 18.01087 40939 ft 428 kts 102°
2026-05-04 20:16 52.57990 18.10709 40936 ft 428 kts 102°
2026-05-04 20:17 52.56874 18.20328 40936 ft 428 kts 102°
2026-05-04 20:17 52.55754 18.29908 40790 ft 420 kts 102°
2026-05-04 20:17 52.55201 18.34615 40012 ft 421 kts 102°
2026-05-04 20:18 52.54642 18.39345 39288 ft 422 kts 102°
2026-05-04 20:18 52.54080 18.44088 38582 ft 423 kts 102°
2026-05-04 20:18 52.53516 18.48835 37699 ft 424 kts 102°
2026-05-04 20:18 52.52947 18.53602 36866 ft 426 kts 102°
2026-05-04 20:19 52.52374 18.58389 36068 ft 428 kts 102°
2026-05-04 20:19 52.51797 18.63197 35306 ft 431 kts 102°
2026-05-04 20:19 52.51212 18.68045 34556 ft 434 kts 102°
2026-05-04 20:19 52.50621 18.72926 33811 ft 437 kts 102°
2026-05-04 20:20 52.50027 18.77823 32976 ft 438 kts 102°
2026-05-04 20:20 52.49429 18.82721 32171 ft 438 kts 102°
2026-05-04 20:20 52.48837 18.87554 31392 ft 438 kts 102°
2026-05-04 20:20 52.48235 18.92458 30632 ft 439 kts 102°
2026-05-04 20:21 52.47630 18.97373 29873 ft 440 kts 102°
2026-05-04 20:21 52.47021 19.02294 29017 ft 441 kts 103°
2026-05-04 20:21 52.45809 19.12049 27435 ft 430 kts 103°
2026-05-04 20:22 52.45212 19.16818 26660 ft 424 kts 103°
2026-05-04 20:22 52.44621 19.21523 25898 ft 419 kts 103°
2026-05-04 20:22 52.44036 19.26164 25161 ft 414 kts 103°
2026-05-04 20:22 52.43456 19.30753 24445 ft 409 kts 103°
2026-05-04 20:23 52.42881 19.35291 23744 ft 404 kts 103°
2026-05-04 20:23 52.42309 19.39779 22971 ft 400 kts 103°
2026-05-04 20:23 52.41745 19.44202 22174 ft 395 kts 103°
2026-05-04 20:23 52.41184 19.48575 21748 ft 393 kts 103°
2026-05-04 20:24 52.40622 19.52950 21332 ft 391 kts 103°
2026-05-04 20:24 52.40064 19.57288 20923 ft 388 kts 103°
2026-05-04 20:24 52.39508 19.61594 20524 ft 385 kts 104°
2026-05-04 20:24 52.38894 19.65841 20122 ft 381 kts 109°
2026-05-04 20:25 52.37991 19.69896 19731 ft 378 kts 114°
2026-05-04 20:25 52.36976 19.73842 19344 ft 375 kts 116°
2026-05-04 20:25 52.35935 19.77729 18960 ft 370 kts 116°
2026-05-04 20:25 52.34912 19.81515 18587 ft 358 kts 116°
2026-05-04 20:26 52.33907 19.85229 18206 ft 357 kts 116°
2026-05-04 20:26 52.32907 19.88930 17776 ft 355 kts 116°
2026-05-04 20:26 52.31914 19.92610 17351 ft 353 kts 116°
2026-05-04 20:26 52.30928 19.96271 16926 ft 351 kts 116°
2026-05-04 20:27 52.29953 19.99907 16516 ft 349 kts 116°
2026-05-04 20:27 52.28984 20.03526 16105 ft 347 kts 116°
2026-05-04 20:27 52.28022 20.07128 15705 ft 345 kts 116°
2026-05-04 20:27 52.27068 20.10709 15308 ft 343 kts 116°
2026-05-04 20:28 52.26123 20.14274 14912 ft 341 kts 116°
2026-05-04 20:28 52.25192 20.17821 14506 ft 339 kts 117°
2026-05-04 20:28 52.24276 20.21352 14124 ft 337 kts 117°
2026-05-04 20:28 52.23374 20.24866 13743 ft 335 kts 117°
2026-05-04 20:29 52.22480 20.28364 13317 ft 333 kts 116°
2026-05-04 20:29 52.21593 20.31835 12902 ft 331 kts 116°
2026-05-04 20:29 52.20708 20.35285 12485 ft 328 kts 116°
2026-05-04 20:29 52.19826 20.38704 12088 ft 326 kts 116°
2026-05-04 20:30 52.18946 20.42098 11672 ft 324 kts 116°
2026-05-04 20:30 52.18077 20.45439 11270 ft 314 kts 116°
2026-05-04 20:30 52.17238 20.48668 10878 ft 307 kts 116°
2026-05-04 20:30 52.16401 20.51865 10485 ft 307 kts 116°
2026-05-04 20:31 52.15564 20.55048 10103 ft 305 kts 116°
2026-05-04 20:31 52.14729 20.58200 9719 ft 303 kts 116°
2026-05-04 20:31 52.13893 20.61340 9287 ft 301 kts 116°
2026-05-04 20:31 52.13059 20.64454 8877 ft 299 kts 116°
2026-05-04 20:32 52.12240 20.67510 8466 ft 297 kts 116°
2026-05-04 20:32 52.11412 20.70574 8069 ft 295 kts 116°
2026-05-04 20:32 52.10576 20.73655 7664 ft 293 kts 116°
2026-05-04 20:32 52.09765 20.76630 7278 ft 291 kts 116°
2026-05-04 20:33 52.08931 20.79659 6879 ft 288 kts 119°
2026-05-04 20:33 52.07881 20.82400 6495 ft 284 kts 129°
2026-05-04 20:33 52.06684 20.84933 6100 ft 282 kts 131°
2026-05-04 20:33 52.05464 20.87416 5696 ft 280 kts 131°
2026-05-04 20:34 52.04246 20.89872 5301 ft 278 kts 131°
2026-05-04 20:34 52.03034 20.92309 5020 ft 277 kts 131°
2026-05-04 20:34 52.01809 20.94720 4771 ft 276 kts 137°
2026-05-04 20:34 52.00308 20.96518 4528 ft 271 kts 153°
2026-05-04 20:35 51.98650 20.97942 4277 ft 269 kts 156°
2026-05-04 20:35 51.96978 20.99291 4025 ft 269 kts 157°
2026-05-04 20:35 51.95303 21.00650 3778 ft 269 kts 157°
2026-05-04 20:35 51.93635 21.02010 3528 ft 268 kts 156°
2026-05-04 20:36 51.91970 21.03366 3291 ft 268 kts 156°
2026-05-04 20:36 51.90307 21.04714 3048 ft 267 kts 156°
2026-05-04 20:36 51.88647 21.06053 3002 ft 267 kts 156°
2026-05-04 20:36 51.86984 21.07390 3002 ft 267 kts 155°
2026-05-04 20:37 51.85565 21.09331 3000 ft 273 kts 128°
2026-05-04 20:37 51.84853 21.12174 3001 ft 277 kts 99°
2026-05-04 20:37 51.85040 21.15256 3001 ft 279 kts 70°
2026-05-04 20:37 51.86083 21.17861 3008 ft 277 kts 41°
2026-05-04 20:38 51.87643 21.19664 3013 ft 275 kts 29°
2026-05-04 20:38 51.89354 21.21003 3020 ft 272 kts 11°
2026-05-04 20:38 51.91203 21.21046 3026 ft 265 kts 342°
2026-05-04 20:38 51.92798 21.19692 3034 ft 258 kts 314°
2026-05-04 20:39 51.93775 21.17332 3034 ft 253 kts 289°
2026-05-04 20:39 51.94643 21.14935 3034 ft 242 kts 313°
2026-05-04 20:39 51.96087 21.13647 3030 ft 242 kts 342°
2026-05-04 20:39 51.97731 21.12974 3033 ft 243 kts 337°
2026-05-04 20:40 51.99256 21.11828 3033 ft 241 kts 328°
2026-05-04 20:40 52.00718 21.10505 3034 ft 240 kts 328°
2026-05-04 20:40 52.02185 21.09249 3035 ft 232 kts 329°
2026-05-04 20:40 52.03542 21.08083 2949 ft 213 kts 327°
2026-05-04 20:41 52.04820 21.06947 2693 ft 206 kts 328°
2026-05-04 20:41 52.06097 21.05838 2402 ft 209 kts 328°
2026-05-04 20:41 52.07346 21.04759 2131 ft 196 kts 328°
2026-05-04 20:41 52.08506 21.03739 1866 ft 185 kts 328°
2026-05-04 20:42 52.09619 21.02738 1595 ft 181 kts 329°
2026-05-04 20:42 52.10704 21.01813 1435 ft 165 kts 330°
2026-05-04 20:42 52.11653 21.01001 1247 ft 146 kts 330°
2026-05-04 20:42 52.12512 21.00244 1018 ft 135 kts 329°
2026-05-04 20:43 52.13315 20.99542 853 ft 128 kts 330°
2026-05-04 20:43 52.14096 20.98880 702 ft 126 kts 331°
2026-05-04 20:43 52.14862 20.98216 535 ft 124 kts 330°
2026-05-04 20:43 52.15600 20.97564 378 ft 118 kts 330°
2026-05-04 20:44 52.16267 20.96979 335 ft 95 kts 330°
2026-05-04 20:44 52.16791 20.96520 332 ft 79 kts 331°
2026-05-04 20:44 52.17245 20.96124 331 ft 63 kts 331°
2026-05-04 20:44 52.17369 20.96016 333 ft 15 kts 326°
2026-05-04 20:45 52.17363 20.95919 333 ft 9 kts 207°
2026-05-04 20:45 52.17294 20.95865 333 ft 10 kts 206°
2026-05-04 20:45 52.17225 20.95797 331 ft 10 kts 264°
2026-05-04 20:45 52.17254 20.95694 331 ft 11 kts 294°
2026-05-04 20:46 52.17287 20.95581 332 ft 11 kts 297°
2026-05-04 20:46 52.17311 20.95500 332 ft 12 kts 295°
2026-05-04 20:46 52.17345 20.95388 333 ft 1 kts 284°
2026-05-04 20:46 52.17332 20.95371 333 ft 7 kts 203°
2026-05-04 20:47 52.17309 20.95335 331 ft 0 kts 300°